Home   Weather   Kaiserslautern   Past weeks

Flag for Germany Past Weather in Kaiserslautern, Rhineland-Palatinate, Germany — Yesterday and Last 2 Weeks

Now
66 °F

Sunny.


Feels Like: 66 °F
Forecast: 44 / 51 °F
Wind: 17 mph from East

Location: Ramstein

Current Time: Apr 30, 2017 at 6:52:11 pm

Latest Report: Apr 30, 2017 at 5:58 pm


Visibility: N/A

Pressure: 29.72 "Hg

Humidity: 25%

Dew Point: 29 °F

Location of KaiserslauternLocation

Past Weather in Kaiserslautern — Graph

°F

Kaiserslautern Temperature Yesterday

Maximum temperature yesterday: 59 °F (at 5:58 pm)
Minimum temperature yesterday: 35 °F (at 5:58 am)
Average temperature yesterday: 47 °F

High & Low Weather Summary for the Past Weeks

 TemperatureHumidityPressure
High66 °F (Apr 30, 3:58 pm)100% (Apr 16, 7:58 am)30.63 "Hg (Apr 16, 7:58 am)
Low18 °F (Apr 20, 5:58 am)26% (Apr 24, 5:58 pm)29.72 "Hg (Apr 25, 5:23 am)
Average44 °F67%30.13 "Hg
* Reported Apr 15 4:58 pm — Apr 30 4:58 pm, Kaiserslautern, Weather by CustomWeather, © 2017

Note: Actual official high and low records may vary slightly from our data, if they occured in-between our weather recording intervals... More about our weather records

Advertising

Kaiserslautern Weather History for the Previous 24 Hours

Scroll right to see more
 ConditionsComfort  
Time TempWeatherWind HumidityBarometerVisibility
4:58 pm
Sun, Apr 30
66 °FSunny.15 mph26%29.75 "HgN/A
3:58 pm66 °FSunny.17 mph26%29.77 "HgN/A
2:58 pm64 °FSunny.14 mph30%29.80 "HgN/A
1:58 pm63 °FPassing clouds.16 mph32%29.82 "HgN/A
12:58 pm61 °FSunny.14 mph31%29.85 "HgN/A
12:17 pm61 °FSunny.14 mph34%29.85 "HgN/A
11:58 am61 °FSunny.12 mph31%29.86 "HgN/A
10:58 am58 °FSunny.12 mph35%29.90 "HgN/A
9:58 am55 °FSunny.10 mph46%29.93 "HgN/A
8:58 am49 °FSunny.10 mph61%29.94 "HgN/A
7:58 am39 °FSunny.No wind81%29.96 "HgN/A
6:58 am32 °FSunny.No wind93%29.97 "HgN/A
5:58 am32 °FClear.No wind93%29.96 "HgN/A
4:58 am33 °FClear.No wind90%29.96 "HgN/A
3:58 am34 °FClear.No wind87%29.98 "HgN/A
2:58 am31 °FClear.No wind93%29.98 "HgN/A
1:58 am38 °FClear.No wind76%29.98 "HgN/A
12:58 am39 °FClear.No wind75%29.98 "HgN/A
11:58 pm
Sat, Apr 29
41 °FClear.No wind76%29.99 "HgN/A
10:58 pm43 °FClear.No wind71%30.00 "HgN/A
9:58 pm43 °FClear.No wind68%30.00 "HgN/A
8:58 pm49 °FPassing clouds.3 mph56%29.99 "HgN/A
7:58 pm57 °FPassing clouds.6 mph36%29.98 "HgN/A
6:58 pm59 °FPassing clouds.No wind31%29.98 "HgN/A
Weather by CustomWeather, © 2017

See weather overviewHow to use our weather pages